GW5434 Weather Reports


time (UTC)temp
C
wind
direction
speed
KPH
gust
KPH
rain 1hr
cm
rain 24hr
cm
rain mn
cm
humidity
%
barometer
mb
20260507224526 20 269 1.6 14.5 0.00 4.62 2.44 81 1015.4
20260507223007 20 306 6.4 14.5 0.00 4.62 2.44 81 1015.5
20260507221515 20 305 4.8 12.9 0.00 4.62 2.44 80 1015.4
20260507220018 20 307 4.8 12.9 0.00 4.62 2.44 80 1015.4
20260507214522 20 316 4.8 11.3 0.00 4.62 2.44 81 1015.3
20260507213026 20 347 3.2 12.9 0.00 4.62 2.44 80 1015.1
20260507211508 21 352 3.2 9.7 0.00 4.62 2.44 81 1014.9
20260507210015 20 320 6.4 12.9 0.00 4.62 2.44 80 1014.9
20260507204523 20 298 4.8 11.3 0.00 4.62 2.44 80 1015.1
20260507203032 21 319 6.4 16.1 0.00 4.65 2.44 79 1015.0
20260507201524 21 327 6.4 11.3 0.00 4.75 2.44 79 1015.0
20260507200011 21 320 6.4 11.3 0.00 4.75 2.44 79 1015.2
20260507194518 21 285 4.8 9.7 0.00 4.75 2.44 79 1015.1
20260507193022 22 316 4.8 17.7 0.00 4.75 2.44 78 1015.2
20260507191504 22 315 6.4 14.5 0.00 4.75 2.44 77 1015.1
20260507190010 22 304 3.2 9.7 0.00 4.75 2.44 77 1015.0
20260507184514 22 343 3.2 11.3 0.00 4.75 2.44 79 1015.2
20260507183034 21 11 4.8 9.7 0.00 4.75 2.44 80 1015.1
20260507181521 21 346 6.4 14.5 0.00 4.75 2.44 80 1015.3
20260507180006 21 334 4.8 12.9 0.00 4.75 2.44 81 1015.3
20260507174512 21 316 4.8 14.5 0.00 4.75 2.44 82 1015.4
20260507173014 21 322 6.4 12.9 0.00 4.75 2.44 81 1015.4
20260507171521 21 273 4.8 9.7 0.00 4.75 2.44 81 1015.6
20260507170023 21 359 4.8 9.7 0.00 4.75 2.44 83 1015.8
20260507164508 20 55 4.8 12.9 0.00 4.75 2.44 83 1015.9
20260507163011 19 316 3.2 8.0 0.00 4.75 2.44 86 1015.9
20260507161521 19 340 4.8 9.7 0.00 4.75 2.44 88 1016.1
20260507160037 18 303 1.6 8.0 0.00 4.75 2.44 88 1016.0
20260507154529 18 102 1.6 6.4 0.00 4.75 2.44 89 1015.8
20260507153009 17 312 4.8 9.7 0.00 4.75 2.44 90 1015.7
20260507151514 17 335 4.8 9.7 0.00 4.75 2.44 90 1015.8
20260507150025 17 314 4.8 8.0 0.00 4.75 2.44 93 1015.7
20260507144532 16 310 4.8 8.0 0.00 4.75 2.44 93 1015.8
20260507143025 16 302 4.8 14.5 0.00 4.75 2.44 93 1015.9
20260507141516 16 302 8.0 14.5 0.00 4.75 2.44 93 1015.9
20260507140018 16 307 4.8 9.7 0.00 4.75 2.44 93 1015.9
20260507134520 16 293 4.8 12.9 0.00 4.75 2.44 93 1015.5
20260507133024 17 313 4.8 14.5 0.00 4.75 2.44 93 1015.5
20260507131523 17 293 6.4 12.9 0.00 4.75 2.44 93 1015.3
20260507130022 17 40 3.2 11.3 0.00 4.75 2.44 94 1015.2
20260507124519 17 327 6.4 12.9 0.00 4.75 2.44 93 1015.1
20260507123019 18 1 6.4 14.5 0.00 4.75 2.44 94 1014.3
20260507121524 18 315 1.6 9.7 0.00 4.75 2.44 93 1014.2
20260507120028 18 333 3.2 14.5 0.00 4.75 2.44 93 1013.7
20260507114515 18 309 3.2 16.1 0.00 4.75 2.44 93 1013.3
20260507113020 18 36 8.0 14.5 0.00 4.75 2.44 93 1013.3
20260507111523 18 303 4.8 11.3 0.00 4.75 2.44 93 1013.0
20260507110029 18 343 6.4 12.9 0.00 4.75 2.44 93 1012.8
20260507104528 19 330 3.2 8.0 0.00 4.75 2.44 93 1012.4
20260507103017 19 328 3.2 8.0 0.00 4.75 2.44 93 1012.4
20260507101502 19 335 1.6 8.0 0.00 4.75 2.44 93 1012.1
20260507100006 19 297 1.6 8.0 0.30 4.75 2.44 93 1012.1
20260507094507 20 300 3.2 16.1 1.22 4.75 2.44 93 1012.2
20260507093023 20 294 6.4 12.9 1.27 4.75 2.44 93 1011.8
20260507091528 20 32 3.2 8.0 1.27 4.75 2.44 93 1011.6
20260507090005 20 247 3.2 8.0 1.12 4.45 2.13 93 1012.0
20260507084508 21 348 4.8 9.7 0.25 3.53 1.22 92 1011.5
20260507083010 21 300 1.6 9.7 0.20 3.48 1.17 93 1011.2
20260507081514 21 297 1.6 3.2 0.23 3.48 1.17 94 1011.0
20260507080020 21 291 1.6 4.8 0.10 3.33 1.02 93 1011.1
20260507074505 21 278 0.0 1.6 0.08 3.28 0.97 93 1011.2
20260507073006 21 279 1.6 4.8 0.08 3.28 0.97 93 1011.6
20260507071512 22 275 0.0 4.8 0.05 3.25 0.94 93 1011.5
20260507070018 22 281 1.6 6.4 0.03 3.23 0.91 93 1011.5
20260507064520 22 236 1.6 9.7 0.00 3.20 0.89 93 1011.7
20260507063018 22 269 0.0 1.6 0.00 3.20 0.89 92 1011.2
20260507061510 22 236 1.6 4.8 0.03 3.20 0.89 92 1011.4
20260507060029 22 283 3.2 9.7 0.89 3.20 0.89 91 1011.2
20260507054519 22 276 4.8 8.0 2.01 3.20 0.89 91 1011.3
20260507053021 22 293 1.6 11.3 2.36 3.20 0.89 92 1010.6
20260507051505 23 103 8.0 16.1 2.44 3.17 0.86 94 1010.3
20260507050011 23 97 3.2 8.0 1.57 2.31 0.00 94 1011.1
20260507044515 23 288 1.6 3.2 0.46 1.19 1.19 93 1011.4
20260507043020 23 121 0.0 3.2 0.10 0.84 0.84 92 1011.3
20260507041522 23 125 3.2 8.0 0.00 0.74 0.74 92 1011.2
20260507040006 23 108 3.2 9.7 0.00 0.74 0.74 92 1011.2
20260507034527 23 175 4.8 14.5 0.00 0.74 0.74 92 1011.0
20260507033015 22 118 1.6 12.9 0.00 0.74 0.74 93 1010.7
20260507031522 22 149 6.4 14.5 0.00 0.74 0.74 93 1011.2
20260507030022 21 198 3.2 16.1 0.00 0.74 0.74 93 1011.4
20260507024510 21 147 6.4 11.3 0.00 0.74 0.74 93 1011.3
20260507023012 21 153 3.2 6.4 0.00 0.74 0.74 92 1011.2
20260507021519 21 136 0.0 1.6 0.00 0.74 0.74 92 1011.2
20260507020030 21 92 0.0 1.6 0.00 0.74 0.74 91 1011.2
20260507014525 21 131 0.0 3.2 0.00 0.74 0.74 91 1011.7
20260507013019 21 160 1.6 9.7 0.00 0.74 0.74 90 1011.4
20260507011516 22 128 4.8 12.9 0.51 0.74 0.74 91 1011.7
20260507010026 22 124 6.4 17.7 0.58 0.74 0.74 90 1010.9
20260507004525 23 158 11.3 19.3 0.61 0.74 0.74 90 1011.1
20260507003025 24 221 9.7 20.9 0.61 0.74 0.74 92 1011.8
20260507001513 24 174 1.6 3.2 0.10 0.23 0.23 92 1011.2
20260507000019 24 174 0.0 3.2 0.03 0.15 0.15 92 1010.6
20260506234530 24 64 0.0 1.6 0.00 0.13 0.13 92 1009.8
20260506233036 24 109 0.0 3.2 0.00 0.13 0.13 91 1010.6
20260506231510 25 88 0.0 0.0 0.00 0.13 0.13 91 1010.5
20260506230014 25 174 0.0 6.4 0.00 0.13 0.13 89 1010.9